Regional Weather Roundup
Issued by NWS

Home | Current Version | Previous Version | Text Only | Print | Product List | Glossary On
Versions: 1 2 3 4 5 6 7 8 9 10 11 12 13 14 15 16 17 18 19 20 21 22 23 24 25 26 27 28 29 30 31 32 33 34 35 36 37 38 39 40 41 42 43 44 45 46 47 48 49 50
000
ASUS45 KABQ 291410
RWRNM
WEATHER ROUNDUP FOR NEW MEXICO
NATIONAL WEATHER SERVICE ALBUQUERQUE NM
800 AM MDT SUN MAR 29 2015

NOTE: "FAIR" MEANS FEW OR NO CLOUDS BELOW 12,000 FEET AGL WITH NO
       SIGNIFICANT WEATHER OR OBSTRUCTIONS TO VISION.

      THIS PRODUCT IS RELEASED AS TWO VERSIONS.  ONE VERSION NEAR
      THE TOP OF THE HOUR CONTAINING PRELIMINARY DATA FROM ALBUQUERQUE
      AND OTHER STATIONS.  A FINAL VERSION WITH ADDITIONAL DATA IS
      ISSUED ABOUT 10 MINUTES AFTER THE HOUR.

NMZ501-503-504-510>518-291500-
NORTHWEST PLATEAU/NORTHCENTRAL MOUNTAINS

CITY           SKY/WX    TMP DP  RH WIND       PRES   REMARKS
FARMINGTON     SUNNY     40  21  46 E9        30.23R WCI  34
LOS ALAMOS     SUNNY     54  15  21 CALM      30.30R
SANTA FE       SUNNY     45  20  36 CALM      30.25R
TAOS           SUNNY     39  21  48 NW8       30.32R WCI  34
ANGEL FIRE     FAIR      37  24  58 NE6       30.34R WCI  32

$$
NMZ402-403-502-505>509-291500-
WESTCENTRAL MOUNTAINS/SOUTHWEST MOUNTAINS

CITY           SKY/WX    TMP DP  RH WIND       PRES   REMARKS
GALLUP         SUNNY     36  15  42 NE3       30.32R
GRANTS         SUNNY     37  19  46 NW3       30.33R
SILVER CITY    SUNNY     50  14  23 NW9       30.27R

$$
NMZ407-409-411-412-291500-
SOUTHERN DESERTS

CITY           SKY/WX    TMP DP  RH WIND       PRES   REMARKS
LORDSBURG      FAIR      45  18  33 S3        30.21R
DEMING         SUNNY     46  15  28 W3        30.21R
LAS CRUCES     SUNNY     56   8  14 W6        30.21R
HOLLOMAN AFB   MOSUNNY   49  15  25 W6        30.17R
ALAMOGORDO     MOSUNNY   54  18  24 S6        30.18R
T OR C         SUNNY     57   6  13 NW9       30.22R

$$
NMZ519>523-291500-
CENTRAL VALLEYS/CENTRAL HIGHLANDS

CITY           SKY/WX    TMP DP  RH WIND       PRES   REMARKS
ALBUQUERQUE    MOSUNNY   51  16  24 SE3       30.25R
DOUBLE EAGLE   SUNNY     45  18  33 CALM      30.27R
MORIARTY ARPT  FAIR      46  14  27 NE3       30.27R
CLINES CORNERS SUNNY     47  18  31 NW9       30.26R
BELEN          FAIR      55  15  20 CALM      30.25R
SOCORRO        FAIR      64  15  15 NW3       30.21R

$$
NMZ524>526-539-540-291500-
SOUTHCENTRAL MOUNTAINS

CITY           SKY/WX    TMP DP  RH WIND       PRES   REMARKS
RUIDOSO        SUNNY     55  10  16 W12       30.31R

$$
NMZ527>531-291500-
NORTHEAST HIGHLANDS/NORTHEAST PLAINS

CITY           SKY/WX    TMP DP  RH WIND       PRES   REMARKS
LAS VEGAS      SUNNY     52  19  27 CALM      30.25R
RATON          SUNNY     55  23  28 N10       30.23R
CLAYTON        SUNNY     60  27  28 N20G28    30.18R

$$
NMZ532>537-291500-
EASTCENTRAL PLAINS

CITY           SKY/WX    TMP DP  RH WIND       PRES   REMARKS
TUCUMCARI      SUNNY     57  24  28 N13       30.11R
CANNON AFB     NOT AVBL
CLOVIS AIRPORT SUNNY     57  27  30 NW16      30.08R

$$
NMZ028-029-538-291500-
SOUTHEAST PLAINS

CITY           SKY/WX    TMP DP  RH WIND       PRES   REMARKS
ROSWELL        SUNNY     63  19  18 W10       30.09R
ARTESIA        SUNNY     54  27  35 CALM      30.11R
CARLSBAD       SUNNY     57  31  37 N8        30.08R
HOBBS          SUNNY     57  25  28 NW14      30.08R


$$



USA.gov is the U.S. government's official web portal to all federal, state and local government web resources and services.